Flag for Germany Weather past 2 weeks in Wolfsburg, Lower Saxony, Germany

Now
34 °F

Partly cloudy.


Feels Like: 25 °F
Forecast: 36 / 43 °F
Wind: 13 mph from West

Location: Celle Airport

Current Time: Apr 1, 2015 at 5:38:07 AM

Latest Report: Apr 1, 2015 at 4:48 AM


Visibility: 4 mi

Pressure: 29.65 "Hg

Humidity: 93%

Dew point: 32 °F

Location of WolfsburgLocation

Historic Weather in Wolfsburg — Graph

°F

Wolfsburg temperature yesterday

Maximum temperature yesterday: 50 °F (at 10:20 AM)
Minimum temperature yesterday: 34 °F (at 5:20 AM)
Average temperature yesterday: 43 °F

Past Weeks' High & Low Weather Summary

 TemperatureHumidityPressure
High61 °F (Mar 25, 3:20 PM)100% (Mar 20, 11:20 PM)30.42 "Hg (Mar 20, 11:20 PM)
Low27 °F (Mar 20, 5:20 AM)31% (Mar 19, 3:20 PM)29.03 "Hg (Mar 29, 10:20 PM)
Average43 °F75%29.89 "Hg
* Reported Mar 17 3:20 AM — Apr 1 4:20 AM, Wolfsburg, Weather by CustomWeather, © 2015

Note: Actual official high and low records may vary slightly from our data, if they occured in-between our weather recording intervals... More about our weather records

Advertising

Wolfsburg weather history for previous 24 hours

 ConditionsComfort  
Time TempWeatherWind HumidityBarometerVisibility
4:20 AM
Wed, Apr 1
32 °FSnow showers. Ice fog.12 mph100%29.65 "Hg1 mi
3:20 AM34 °FSnow showers. Dense fog.14 mph93%29.62 "Hg1 mi
2:47 AM34 °FSnow showers. Low clouds.14 mph93%29.62 "Hg1 mi
2:20 AM36 °FSprinkles. Partly cloudy.12 mph93%29.62 "Hg5 mi
1:20 AM37 °FLight rain. Partly cloudy.10 mph87%29.59 "HgN/A
12:20 AM37 °FSprinkles. Partly cloudy.15 mph87%29.56 "Hg3 mi
11:54 PM
Tue, Mar 31
37 °FRain showers. Partly cloudy.20 mph87%29.56 "Hg2 mi
11:20 PM39 °FPassing clouds.16 mph75%29.53 "HgN/A
10:20 PM41 °FPassing clouds.16 mph70%29.53 "HgN/A
9:20 PM39 °FPassing clouds.14 mph87%29.53 "HgN/A
8:20 PM45 °FScattered showers. Partly sunny.18 mph57%29.47 "HgN/A
7:20 PM45 °FScattered clouds.22 mph57%29.45 "HgN/A
6:20 PM46 °FScattered clouds.26 mph53%29.42 "HgN/A
5:20 PM45 °FPartly sunny.30 mph71%29.33 "HgN/A
4:20 PM45 °FSprinkles. Broken clouds.25 mph81%29.30 "HgN/A
3:20 PM46 °FSprinkles. Partly sunny.28 mph76%29.24 "HgN/A
2:20 PM48 °FPartly sunny.32 mph62%29.18 "HgN/A
2:04 PM48 °FSprinkles. Broken clouds.30 mph62%29.18 "HgN/A
1:20 PM48 °FPartly sunny.30 mph71%29.15 "Hg5 mi
12:50 PM48 °FPartly sunny.30 mph71%29.15 "Hg5 mi
12:20 PM50 °FSprinkles. Partly sunny.29 mph67%29.12 "HgN/A
11:20 AM48 °FSprinkles. Broken clouds.25 mph71%29.12 "Hg5 mi
10:56 AM50 °FSprinkles. Scattered clouds.28 mph71%29.09 "Hg5 mi
10:20 AM50 °FSprinkles. Broken clouds.20 mph71%29.09 "HgN/A
9:20 AM48 °FBroken clouds.18 mph82%29.06 "HgN/A
8:20 AM45 °FLight rain. Partly sunny.17 mph93%29.03 "HgN/A
8:02 AM43 °FLight rain. Broken clouds.14 mph93%29.03 "HgN/A
7:20 AM39 °FPartly cloudy.12 mph93%29.06 "Hg5 mi
6:20 AM36 °FLight rain. Fog.13 mph100%29.12 "Hg3 mi
5:20 AM34 °FLight rain. Fog.17 mph100%29.21 "Hg3 mi
Weather by CustomWeather, © 2015

See weather overviewHow to use our weather pages